Temperature
14 14 15 15 13 12 13 14 16 17 17 18 18 17 16 16 17 17 16 16 16 16 16 16 16 17 17 17 17 17 16 16 16 16 16 16 16 16 16 16 16 16 16 16 16 16 16 16 16
13 14 14 14 12 12 13 14 16 17 18 18 18 17 16 15 16 15 15 15 16 16 16 16 16 16 16 16 16 16 16 16 16 16 16 16 16 16 16 16 16 16 16 16 16 16 16 16 16
13 13 14 11 12 13 14 15 15 17 18 18 17 16 15 15 15 15 15 15 15 16 16 16 16 16 16 16 16 16 16 16 16 16 16 16 16 16 16 16 16 16 16 16 16 16 16 16 16
13 13 13 11 13 13 14 15 15 16 18 17 16 15 15 15 15 15 15 15 15 15 15 16 16 16 16 16 16 16 16 16 16 16 16 16 16 16 15 16 16 15 15 15 16 16 16 16 16
13 13 11 11 12 13 14 15 16 16 16 16 15 13 14 15 15 15 15 15 15 15 15 15 15 16 16 16 15 16 16 16 15 15 15 15 15 15 15 15 15 15 15 15 15 16 16 16 15
12 11 10 11 12 14 14 16 16 15 15 15 15 13 13 14 15 15 15 15 15 15 15 15 15 15 15 15 15 15 15 15 15 15 15 15 15 15 15 15 15 15 15 15 15 15 15 15 15
11 10 11 11 12 13 14 16 15 14 14 15 15 13 13 14 14 14 14 14 14 14 14 14 15 15 15 15 15 15 15 15 15 15 15 15 15 15 15 15 15 15 15 15 15 15 15 15 15
12 10 11 11 12 13 14 15 15 15 14 15 15 13 13 14 14 14 14 14 14 14 14 14 14 14 14 14 14 14 14 14 14 14 14 14 14 14 14 14 14 14 14 14 15 15 15 15 15
11 9 10 11 12 13 14 14 14 14 14 14 14 14 14 14 14 14 14 14 14 14 14 14 14 14 14 14 14 14 14 14 14 14 14 14 14 14 14 14 14 14 14 14 14 14 14 14 14
11 9 10 12 12 12 13 13 13 13 13 12 13 13 13 13 14 14 13 13 13 13 13 14 14 14 14 14 14 14 14 13 13 13 13 13 13 13 14 14 14 14 14 14 14 14 14 14 14
10 10 11 11 12 13 13 13 13 13 12 12 12 13 13 13 13 13 13 13 13 13 13 13 13 13 14 14 14 14 13 13 13 13 13 13 13 13 13 13 13 13 13 13 13 13 13 13 13
10 10 11 11 12 12 12 12 12 12 13 13 13 13 13 13 13 13 13 13 13 13 13 13 13 13 13 13 13 13 13 13 13 13 13 13 13 13 13 13 13 13 13 13 13 13 13 13 13
9 10 11 11 12 12 12 12 11 12 13 13 13 13 12 12 12 12 12 12 12 13 13 13 13 13 13 13 13 13 13 12 12 12 12 12 12 12 12 12 12 12 12 12 12 12 13 13 13
10 10 10 11 11 12 11 11 11 11 12 12 12 12 12 12 12 12 12 12 12 12 12 12 12 12 12 12 12 12 12 12 12 12 12 12 12 12 12 12 12 12 12 12 12 12 12 12 12
10 9 10 10 11 11 11 10 10 12 12 11 11 11 11 11 12 12 12 12 12 12 12 12 12 12 12 12 12 12 12 12 12 11 11 11 11 12 12 12 11 11 11 11 11 11 11 11 12
9 9 9 10 10 11 11 10 10 11 11 11 11 11 11 11 11 12 12 12 12 12 12 12 12 12 12 12 12 12 11 11 11 11 11 11 11 11 11 11 11 11 11 11 11 11 11 11 11
8 8 9 10 10 10 10 9 10 11 11 11 11 11 11 11 11 11 11 12 12 11 11 11 11 11 11 11 11 11 11 11 11 11 11 11 11 11 11 11 11 11 11 11 11 11 11 11 11
8 8 9 9 9 9 9 9 9 10 10 10 11 11 10 11 11 11 11 11 11 11 11 11 11 11 11 11 11 11 11 11 11 11 11 11 10 10 10 10 10 10 10 10 10 10 10 10 10
9 9 9 9 9 9 8 9 9 10 10 9 10 10 10 10 11 11 11 11 11 11 10 11 11 11 11 11 11 11 11 11 10 10 10 10 10 10 10 10 10 10 10 10 9 9 10 10 10
9 8 8 9 9 9 8 8 9 9 9 10 10 10 10 10 10 10 11 10 10 10 10 10 10 10 10 10 10 10 10 10 10 10 10 10 10 9 9 9 9 9 9 9 9 9 9 9 9
8 8 8 8 8 8 8 8 9 9 9 10 10 10 10 10 10 10 10 10 10 10 10 10 10 10 10 10 10 10 10 10 10 10 9 9 9 9 9 9 9 8 8 8 8 8 8 8 8
8 8 8 8 7 6 8 7 8 8 8 8 9 9 10 10 10 10 10 10 10 10 10 10 10 9 9 9 9 9 9 9 9 9 9 9 9 8 8 8 8 8 8 8 8 8 8 7 7
8 8 8 8 7 6 7 7 7 7 8 8 8 9 10 10 10 10 10 10 10 9 9 9 9 9 9 9 9 9 9 9 8 8 8 8 8 8 8 8 7 7 7 7 7 7 7 7 7
8 8 7 6 5 7 7 7 7 7 8 8 8 9 9 10 10 10 10 9 9 9 9 9 9 9 8 8 8 8 8 8 8 8 8 8 8 7 7 7 7 7 7 7 7 7 6 6 6
7 6 5 6 5 6 7 7 7 8 8 8 8 9 9 9 9 9 9 9 9 9 9 8 8 8 8 8 8 8 7 7 7 7 7 7 7 7 7 7 7 7 7 6 6 6 6 6 6
7 7 6 7 6 6 6 6 7 8 8 9 9 9 9 9 9 9 9 9 9 9 9 8 8 8 8 8 7 7 7 7 7 7 7 7 7 7 6 6 6 6 6 6 6 6 6 5 5
7 6 6 5 5 5 6 6 7 8 8 8 8 8 9 9 9 9 9 8 8 8 8 8 8 8 8 7 7 7 7 6 6 6 6 6 6 6 6 6 6 6 6 5 5 5 5 5 5
7 6 5 5 6 7 7 6 7 8 8 7 7 7 8 9 9 9 8 8 8 8 8 7 7 7 7 7 7 7 6 6 6 6 6 6 6 6 6 5 5 5 5 5 5 5 5 4 4
6 6 6 5 5 5 6 6 7 7 7 7 7 8 8 9 9 8 8 8 8 8 7 7 7 7 7 7 6 6 6 6 6 6 6 5 5 5 5 5 5 5 4 4 4 4 4 4 4
6 6 5 5 5 4 4 6 7 7 7 7 7 8 8 8 8 8 8 8 7 7 7 7 7 7 6 6 6 6 6 6 6 5 5 5 5 5 5 4 4 4 4 4 4 3 3 3 3
Wind_Speed
8 7 2 3 4 2 5 5 3 3 2 1 2 6 7 5 4 5 3 6 10 10 11 12 12 11 11 10 10 9 9 8 7 7 7 6 6 6 6 5 5 4 4 4 3 3 3 4 4
4 2 3 3 4 4 5 5 5 5 5 3 4 5 6 4 3 6 4 7 11 11 11 12 12 11 10 9 9 8 8 7 7 6 6 5 5 4 4 4 4 4 3 3 3 2 2 2 2
3 0 3 3 4 8 6 5 7 4 2 2 3 4 4 4 3 4 5 9 10 9 10 11 12 11 10 9 8 8 7 6 6 6 5 4 4 3 3 3 2 2 2 2 2 1 1 1 2
2 2 2 2 7 5 5 5 6 3 1 3 5 4 3 2 2 5 8 10 10 8 10 11 11 10 9 8 7 7 6 6 5 4 4 3 3 2 2 2 2 1 1 1 1 0 1 1 2
3 3 2 3 6 3 4 5 4 3 2 2 4 5 2 4 5 9 9 10 10 7 9 10 11 10 9 7 6 6 6 5 4 4 3 3 2 2 1 1 1 0 0 1 1 1 2 2 3
2 3 2 5 5 3 3 3 2 2 2 2 4 5 2 1 5 7 9 9 9 8 8 9 10 9 8 7 5 5 5 4 4 3 3 2 1 1 1 1 1 1 2 2 2 2 3 3 4
3 3 4 5 4 4 4 1 3 3 3 2 5 5 3 1 3 7 9 9 8 8 8 7 7 7 7 6 6 4 4 4 3 3 2 2 1 2 2 2 1 2 2 3 3 4 4 5 5
3 2 2 3 4 4 2 1 1 3 3 1 3 7 5 4 4 7 9 8 7 7 6 6 7 6 6 5 5 4 4 3 3 2 2 2 2 2 2 2 2 2 3 4 4 4 5 5 6
2 2 2 3 4 4 1 2 2 2 5 3 3 3 5 7 7 9 8 7 6 6 4 5 5 6 5 4 5 5 4 4 4 3 3 3 3 2 2 2 3 3 4 5 5 5 6 6 7
2 3 4 3 2 3 1 2 3 3 4 3 4 5 6 7 9 9 7 6 5 4 3 3 4 5 5 4 4 5 4 4 4 4 4 3 3 3 3 3 4 4 4 5 6 6 6 6 6
2 3 2 3 3 1 1 2 2 5 2 4 7 7 6 7 6 7 6 5 4 4 3 3 3 4 5 4 4 4 4 4 5 5 4 4 4 3 4 3 4 4 4 5 5 5 5 5 5
1 1 1 3 3 2 1 1 3 1 3 4 7 9 7 7 5 6 6 5 4 4 3 2 3 4 4 5 3 3 4 4 4 4 5 4 3 3 3 3 3 4 4 4 4 4 4 4 5
0 1 2 2 2 2 3 3 2 1 1 4 7 7 7 6 4 4 5 5 5 4 3 2 2 3 3 4 3 3 3 3 3 4 5 5 3 2 2 2 3 4 4 3 3 3 4 4 4
1 0 1 2 2 2 4 2 2 2 3 5 6 6 6 6 5 4 5 5 4 4 3 2 2 3 3 2 2 2 3 3 4 4 5 5 4 3 2 2 3 3 4 4 3 3 3 3 3
1 2 3 2 0 1 3 3 2 3 4 4 4 4 4 4 5 5 5 5 5 4 3 2 2 2 2 2 2 2 2 3 4 4 5 6 6 5 3 2 2 3 5 4 3 3 3 3 3
2 3 1 3 0 1 3 3 3 3 5 4 4 4 4 3 4 4 5 5 5 4 3 2 2 2 1 1 1 1 2 3 3 4 6 7 7 6 4 2 2 4 4 3 2 2 2 3 3
3 1 1 3 1 1 2 4 4 2 5 4 4 4 4 3 2 3 4 5 5 4 3 2 2 2 1 1 1 2 2 3 3 4 5 6 7 7 5 3 4 5 4 3 3 3 2 3 4
1 0 0 2 2 1 2 5 5 3 4 5 5 4 4 4 4 4 4 4 5 4 3 2 2 2 2 2 2 2 2 2 3 4 4 6 6 6 6 4 5 5 3 3 3 3 3 2 3
2 1 1 3 2 0 3 6 7 4 4 5 5 5 5 5 4 3 4 5 4 3 3 2 2 1 2 2 1 1 1 1 1 2 4 5 6 6 5 4 4 4 3 3 4 3 3 3 3
2 1 2 3 3 1 3 7 6 5 5 6 7 6 6 4 3 3 4 4 4 3 3 3 2 1 1 1 0 0 0 1 1 1 3 4 4 5 4 3 3 3 3 3 4 3 2 3 2
2 1 1 2 4 3 2 6 5 3 2 2 4 5 5 6 6 5 4 4 4 3 3 3 2 1 1 1 1 2 2 2 2 2 2 3 4 4 4 3 3 3 2 3 3 3 2 3 3
1 1 0 1 2 3 1 3 6 3 3 2 3 4 5 5 5 5 5 5 5 4 3 2 3 2 1 1 2 1 1 1 2 1 1 2 4 4 4 3 3 2 2 2 3 3 2 2 3
2 2 1 1 1 2 1 2 7 2 3 4 4 5 5 5 5 5 5 5 5 4 3 3 2 2 1 1 1 1 1 1 1 1 1 2 3 3 3 3 2 2 2 2 3 3 3 2 2
1 3 3 4 4 2 3 3 6 3 5 4 3 4 4 4 4 4 4 4 3 3 2 2 3 2 2 3 2 2 2 2 1 2 1 2 2 2 3 3 2 2 2 2 2 2 3 3 3
4 4 4 4 3 5 2 3 7 6 4 4 5 5 4 3 4 3 4 4 4 4 3 3 3 3 3 2 2 3 3 3 3 2 2 2 2 2 3 3 2 2 2 2 2 2 3 3 3
1 4 5 3 4 5 3 5 6 4 3 0 3 4 3 3 3 4 4 5 5 5 4 4 4 4 3 3 3 3 3 2 2 2 2 2 2 2 3 2 2 3 3 3 2 2 3 2 2
1 1 3 4 1 3 5 6 6 1 2 2 2 2 3 3 4 4 4 4 4 5 5 5 5 5 4 4 4 4 3 3 3 3 2 2 2 2 2 2 2 3 3 3 2 2 3 2 2
1 2 3 3 1 3 5 5 4 4 3 2 2 3 4 3 3 4 4 4 4 4 4 4 5 5 5 5 4 4 4 4 4 2 2 2 2 2 2 2 2 3 3 3 2 2 3 2 3
1 1 2 2 3 3 3 6 5 5 5 4 4 4 4 4 4 4 4 4 3 3 3 4 4 4 4 5 4 4 4 3 3 3 3 3 2 2 2 2 3 3 3 3 2 2 3 3 3
4 4 4 2 3 3 3 7 5 4 3 3 3 3 4 4 4 4 4 3 3 3 4 4 4 4 5 4 4 5 4 3 3 4 3 3 2 2 2 2 2 3 3 3 3 3 3 3 3
Wind_Direction
317 331 38 57 74 95 220 232 208 173 175 187 109 105 116 117 144 157 157 136 134 139 136 132 131 128 123 119 115 111 109 106 105 102 99 96 92 87 84 87 95 98 100 98 103 104 103 98 97
329 348 55 72 136 193 237 225 207 204 182 149 85 88 85 87 86 110 122 134 129 130 129 129 127 125 122 121 121 116 112 109 106 105 101 100 96 91 84 85 86 83 83 93 100 102 108 124 121
322 88 102 113 177 197 210 210 199 213 188 134 81 57 89 117 117 129 143 132 120 118 121 124 124 122 119 119 119 118 113 111 107 104 101 99 95 91 85 77 80 85 75 75 90 114 128 171 183
46 64 70 155 215 227 206 212 195 172 57 67 103 69 52 21 152 139 133 123 116 111 115 121 122 120 117 115 117 116 114 114 110 108 106 102 93 83 74 66 71 80 82 70 75 132 240 238 233
67 93 132 215 229 255 243 233 200 160 130 81 99 100 50 348 95 115 121 120 119 112 115 121 120 117 115 113 109 114 114 111 112 114 111 100 83 63 43 26 28 354 280 280 268 269 275 261 258
71 91 155 209 223 242 257 251 162 117 118 89 99 108 126 359 99 117 116 117 120 117 109 112 116 115 113 113 111 114 115 112 108 105 100 89 65 30 2 336 308 290 286 285 283 275 275 275 270
126 134 186 198 205 229 239 244 149 137 116 141 131 116 142 195 124 119 110 109 108 106 98 89 95 102 104 104 106 99 103 103 98 97 87 71 38 8 347 331 306 287 289 287 284 281 280 277 274
136 126 189 200 189 218 229 135 116 123 139 100 107 138 167 196 140 108 99 96 95 92 90 84 79 79 81 87 93 80 87 88 80 77 70 55 33 7 348 336 312 298 292 289 289 291 290 286 282
101 109 198 207 196 219 217 92 39 56 98 58 58 140 161 141 119 104 97 86 84 77 72 76 70 64 65 74 77 65 65 62 60 57 56 47 26 5 348 336 329 315 302 295 294 293 292 290 289
118 166 215 236 241 230 248 124 142 87 72 68 62 68 98 112 116 118 123 118 106 93 73 69 63 59 57 58 58 53 48 47 47 39 40 35 25 9 353 338 341 333 321 311 302 297 294 292 292
134 181 224 307 304 303 57 78 100 126 139 174 151 142 126 116 118 124 130 134 133 121 92 64 67 63 61 49 51 50 46 40 38 36 34 32 29 14 5 355 343 339 334 328 316 311 301 295 291
92 340 335 312 329 11 31 87 61 106 197 170 154 147 137 135 140 141 140 135 127 115 101 74 68 65 60 54 43 56 48 30 25 23 25 30 27 14 3 359 343 342 333 324 320 314 305 297 292
68 304 332 328 18 38 70 79 85 60 140 116 122 124 137 146 146 145 141 134 123 117 107 90 83 69 60 56 41 47 42 23 19 20 18 25 28 3 357 351 347 336 331 325 320 316 311 303 298
186 76 343 331 36 36 68 35 64 230 144 125 131 145 155 158 159 147 139 139 140 134 123 103 91 77 70 68 48 31 31 25 28 28 20 21 20 9 357 349 343 334 324 316 310 311 305 296 297
98 51 351 327 79 357 68 5 225 211 138 140 157 164 165 170 160 160 162 157 157 148 136 119 118 93 77 61 40 26 28 41 39 28 25 22 21 17 12 3 348 338 334 334 331 326 321 313 309
50 64 358 313 82 5 103 246 247 194 149 169 179 176 174 189 182 176 165 153 149 140 133 112 99 87 83 59 29 31 33 50 41 30 28 23 18 15 15 13 348 345 352 354 339 332 330 321 315
33 66 286 315 336 73 140 243 261 200 164 186 193 185 189 192 196 186 167 154 147 143 135 121 104 87 56 46 46 56 48 54 39 32 29 22 17 15 15 9 354 353 1 356 343 345 333 320 318
219 185 299 281 297 110 207 250 268 245 194 205 205 197 199 198 211 185 163 143 134 130 126 120 97 70 53 45 53 45 48 47 32 30 22 21 19 15 13 9 2 3 3 353 348 337 338 321 315
193 132 307 279 289 269 240 260 269 257 218 212 212 207 206 211 210 168 148 135 127 127 131 125 92 58 62 42 44 39 3 31 35 21 20 21 22 14 15 11 4 3 360 346 340 334 335 335 335
70 66 352 330 349 331 273 278 271 246 224 212 201 202 204 202 189 170 152 147 148 151 156 148 120 79 68 64 33 175 307 347 342 360 7 13 19 12 12 20 4 354 356 351 344 341 332 333 353
27 113 283 308 342 2 341 307 286 280 252 225 204 194 192 189 187 180 171 172 165 170 177 171 148 129 83 54 56 43 37 14 4 1 355 355 3 6 4 9 10 352 354 342 333 327 324 316 323
327 296 285 324 25 305 56 289 289 271 294 257 216 197 196 191 180 174 172 181 187 194 185 181 161 141 110 80 93 95 87 270 277 290 309 338 354 356 354 360 6 352 348 336 324 331 314 296 301
231 287 323 353 91 340 317 199 287 307 269 255 232 213 206 194 183 179 180 187 190 189 186 186 174 151 152 146 152 161 237 258 281 304 333 343 346 349 347 349 352 344 334 326 322 324 320 304 284
306 29 32 45 65 319 245 181 284 258 239 247 229 213 204 198 192 187 182 172 182 184 187 192 186 190 191 181 180 189 219 238 275 309 320 324 328 333 336 338 340 332 328 326 323 318 315 309 301
53 73 31 3 4 260 265 200 254 265 253 218 203 203 201 182 180 186 190 193 201 203 210 207 200 208 205 194 195 205 218 217 224 253 266 284 304 310 314 322 325 324 318 319 322 322 319 312 302
300 130 148 199 241 284 311 238 256 288 308 184 163 170 172 180 190 200 210 210 209 210 212 212 212 220 213 207 215 214 211 211 228 240 244 255 268 279 290 300 310 315 317 321 321 321 314 314 306
134 153 169 141 209 274 278 283 298 266 16 64 121 147 191 215 215 216 219 218 218 218 216 213 216 223 222 217 213 213 211 210 224 235 238 253 270 290 291 300 308 314 316 311 309 312 307 309 307
137 143 95 127 185 271 289 276 249 252 241 226 212 219 234 239 240 233 229 228 225 224 226 223 222 223 227 224 220 218 216 217 218 218 229 246 263 279 295 302 303 306 310 310 312 307 305 313 309
169 167 138 135 168 182 270 274 230 222 213 210 224 230 230 229 234 235 240 239 232 233 228 229 233 235 236 230 223 220 218 214 213 218 228 236 252 262 272 282 290 295 302 303 306 302 310 314 314
198 193 153 162 241 200 219 269 276 233 214 201 223 241 246 239 238 236 236 242 244 244 243 241 241 241 241 232 220 220 217 212 216 227 231 228 240 251 260 271 285 290 295 296 295 297 306 302 304
Height
1513 1515 1516 1519 1522 1529 1527 1520 1513 1512 1512 1511 1511 1511 1513 1517 1521 1527 1525 1524 1527 1529 1531 1533 1534 1536 1537 1538 1539 1540 1540 1541 1541 1542 1542 1543 1543 1543 1543 1544 1544 1544 1544 1545 1545 1545 1545 1545 1545
1512 1514 1517 1518 1524 1531 1525 1516 1512 1509 1509 1510 1511 1512 1513 1516 1518 1520 1522 1524 1527 1529 1531 1532 1534 1535 1537 1538 1538 1539 1540 1540 1541 1541 1542 1542 1542 1543 1543 1543 1543 1544 1544 1544 1544 1544 1545 1545 1545
1512 1513 1516 1517 1522 1523 1518 1511 1508 1506 1508 1509 1511 1512 1514 1517 1518 1520 1521 1524 1527 1529 1530 1532 1534 1535 1536 1537 1537 1538 1539 1539 1540 1540 1541 1541 1541 1542 1542 1542 1542 1543 1543 1543 1543 1544 1544 1544 1544
1511 1514 1515 1519 1517 1513 1509 1507 1505 1506 1507 1508 1510 1514 1516 1518 1519 1520 1522 1524 1526 1528 1530 1532 1533 1534 1535 1536 1536 1537 1538 1538 1539 1539 1540 1540 1540 1541 1541 1541 1541 1541 1542 1542 1542 1542 1543 1543 1543
1510 1512 1517 1519 1515 1511 1507 1505 1504 1505 1506 1508 1510 1513 1516 1518 1519 1520 1522 1524 1526 1528 1530 1532 1533 1534 1535 1535 1535 1536 1537 1537 1537 1538 1538 1539 1539 1539 1539 1540 1540 1540 1540 1540 1541 1541 1541 1541 1542
1510 1511 1519 1519 1514 1509 1507 1505 1505 1505 1507 1508 1510 1513 1517 1519 1519 1521 1522 1524 1526 1528 1529 1531 1532 1533 1534 1534 1535 1535 1536 1536 1536 1536 1537 1537 1537 1537 1538 1538 1538 1538 1538 1539 1539 1539 1539 1540 1540
1509 1512 1515 1515 1513 1509 1506 1505 1505 1505 1506 1508 1509 1513 1516 1519 1520 1521 1522 1525 1526 1528 1529 1530 1531 1532 1533 1533 1533 1534 1534 1534 1535 1535 1535 1535 1535 1536 1536 1536 1536 1536 1536 1537 1537 1537 1537 1537 1538
1508 1511 1512 1513 1511 1509 1505 1504 1505 1505 1507 1509 1509 1511 1514 1517 1519 1521 1522 1524 1526 1527 1529 1529 1530 1531 1531 1532 1532 1532 1532 1533 1533 1533 1533 1534 1534 1534 1534 1534 1534 1534 1534 1534 1535 1535 1535 1535 1535
1508 1514 1514 1511 1509 1506 1503 1504 1505 1505 1506 1507 1508 1510 1512 1515 1518 1520 1521 1523 1525 1526 1528 1529 1529 1530 1530 1530 1531 1531 1531 1531 1531 1531 1532 1532 1532 1532 1532 1532 1532 1532 1532 1532 1532 1532 1532 1532 1533
1507 1513 1510 1507 1506 1504 1503 1503 1504 1505 1506 1508 1508 1510 1512 1514 1517 1518 1520 1521 1523 1525 1527 1527 1528 1529 1529 1529 1529 1529 1529 1529 1529 1529 1530 1530 1530 1530 1530 1530 1530 1530 1529 1529 1529 1529 1529 1530 1529
1506 1508 1506 1505 1504 1503 1503 1503 1504 1504 1507 1507 1508 1510 1512 1514 1516 1518 1519 1521 1522 1524 1525 1526 1527 1527 1527 1527 1527 1527 1527 1527 1527 1528 1528 1528 1528 1528 1528 1528 1527 1527 1527 1527 1527 1527 1526 1526 1526
1507 1506 1506 1505 1504 1503 1503 1503 1504 1504 1505 1507 1508 1509 1511 1513 1515 1517 1518 1520 1522 1523 1524 1525 1525 1525 1525 1526 1525 1525 1525 1525 1525 1525 1525 1525 1525 1525 1525 1525 1525 1525 1524 1524 1524 1523 1523 1523 1523
1507 1507 1506 1505 1504 1504 1504 1504 1505 1505 1506 1507 1508 1509 1511 1513 1515 1516 1518 1519 1520 1522 1523 1523 1524 1524 1524 1524 1524 1524 1523 1523 1523 1523 1523 1523 1523 1523 1523 1522 1522 1522 1522 1521 1521 1520 1520 1520 1520
1507 1507 1506 1506 1505 1505 1504 1505 1506 1506 1507 1508 1508 1510 1511 1513 1514 1515 1517 1518 1519 1520 1521 1522 1522 1522 1522 1522 1522 1522 1521 1521 1521 1521 1521 1521 1520 1520 1520 1520 1520 1519 1519 1518 1518 1517 1517 1517 1516
1507 1508 1508 1506 1505 1506 1506 1508 1507 1506 1507 1508 1508 1510 1511 1512 1513 1514 1516 1517 1518 1519 1520 1520 1521 1520 1520 1520 1520 1520 1519 1519 1519 1519 1518 1518 1518 1518 1517 1517 1517 1516 1516 1516 1515 1514 1514 1513 1513
1508 1511 1513 1509 1506 1507 1510 1512 1507 1507 1507 1507 1508 1509 1510 1511 1512 1513 1515 1516 1517 1518 1519 1519 1519 1519 1519 1518 1518 1517 1517 1517 1517 1516 1516 1516 1516 1515 1515 1514 1514 1514 1513 1512 1512 1511 1510 1510 1509
1513 1516 1514 1511 1508 1508 1510 1511 1506 1506 1506 1506 1507 1508 1509 1510 1511 1512 1514 1515 1516 1517 1517 1517 1517 1517 1517 1516 1516 1515 1515 1514 1514 1514 1514 1514 1514 1513 1512 1511 1511 1510 1510 1509 1509 1508 1507 1506 1505
1517 1516 1515 1514 1510 1510 1511 1510 1506 1506 1505 1505 1506 1507 1508 1509 1510 1511 1512 1513 1514 1515 1516 1516 1515 1515 1515 1514 1513 1513 1513 1512 1512 1512 1512 1512 1511 1510 1510 1509 1508 1507 1507 1506 1506 1505 1504 1503 1502
1514 1515 1515 1513 1510 1511 1511 1509 1506 1504 1504 1504 1505 1505 1507 1507 1509 1510 1511 1512 1513 1514 1514 1514 1513 1513 1512 1512 1510 1511 1511 1510 1511 1510 1510 1509 1509 1508 1507 1506 1505 1504 1503 1503 1502 1501 1501 1500 1499
1514 1516 1516 1514 1511 1512 1512 1509 1504 1503 1502 1502 1502 1503 1504 1506 1507 1508 1509 1510 1511 1512 1512 1512 1511 1511 1511 1510 1510 1509 1509 1508 1508 1508 1508 1507 1506 1506 1504 1503 1502 1501 1500 1500 1499 1498 1497 1497 1496
1516 1518 1518 1517 1514 1513 1514 1510 1504 1501 1500 1500 1500 1501 1503 1504 1505 1506 1507 1508 1509 1510 1510 1510 1509 1510 1509 1509 1508 1508 1507 1507 1507 1506 1506 1505 1504 1503 1502 1500 1499 1499 1498 1497 1496 1496 1495 1494 1493
1518 1516 1516 1516 1520 1522 1519 1522 1507 1503 1501 1500 1500 1500 1501 1503 1504 1505 1505 1506 1507 1508 1508 1508 1508 1508 1507 1507 1507 1506 1506 1505 1504 1504 1503 1502 1501 1500 1499 1498 1497 1496 1495 1494 1493 1493 1492 1491 1490
1517 1515 1516 1517 1520 1524 1521 1523 1513 1504 1503 1500 1499 1499 1500 1502 1503 1503 1504 1505 1506 1506 1506 1506 1506 1505 1506 1505 1505 1505 1505 1504 1503 1502 1501 1500 1499 1498 1497 1496 1495 1494 1492 1491 1490 1489 1489 1488 1487
1515 1517 1518 1522 1526 1526 1520 1523 1515 1508 1501 1498 1498 1498 1499 1501 1501 1502 1503 1504 1504 1504 1505 1504 1504 1504 1504 1504 1503 1503 1503 1502 1501 1499 1498 1497 1496 1496 1495 1493 1492 1491 1490 1489 1487 1486 1486 1485 1484
1518 1524 1532 1531 1535 1528 1519 1519 1514 1501 1497 1496 1496 1497 1498 1499 1500 1501 1501 1502 1502 1502 1502 1502 1502 1501 1501 1501 1501 1501 1501 1500 1499 1498 1496 1495 1494 1493 1492 1491 1489 1488 1487 1486 1485 1484 1482 1481 1480
1520 1523 1532 1532 1533 1528 1520 1518 1507 1499 1496 1495 1495 1496 1497 1498 1499 1499 1500 1500 1500 1500 1500 1500 1499 1499 1499 1499 1499 1498 1498 1497 1497 1496 1494 1493 1492 1490 1489 1488 1487 1486 1484 1483 1482 1481 1479 1478 1477
1519 1523 1523 1531 1532 1532 1523 1514 1503 1497 1496 1495 1495 1496 1496 1497 1498 1498 1498 1498 1498 1498 1498 1498 1497 1497 1496 1496 1496 1496 1495 1494 1494 1493 1492 1490 1489 1488 1486 1485 1484 1483 1481 1480 1479 1478 1476 1475 1474
1520 1521 1527 1529 1528 1526 1519 1515 1508 1498 1497 1496 1496 1495 1495 1496 1496 1496 1496 1496 1496 1496 1496 1495 1495 1494 1494 1494 1493 1493 1492 1491 1491 1490 1489 1488 1486 1485 1483 1482 1481 1480 1478 1477 1476 1474 1473 1472 1470
1521 1522 1523 1529 1530 1530 1526 1515 1498 1495 1495 1495 1494 1494 1494 1494 1494 1494 1494 1494 1494 1493 1493 1492 1492 1491 1490 1490 1490 1489 1489 1488 1487 1486 1485 1484 1483 1482 1480 1479 1478 1476 1475 1474 1473 1471 1470 1468 1467
1519 1519 1523 1527 1528 1531 1532 1516 1493 1492 1492 1492 1493 1493 1493 1493 1493 1493 1492 1492 1491 1490 1490 1489 1488 1487 1487 1486 1486 1485 1485 1484 1483 1483 1482 1481 1479 1478 1477 1476 1474 1473 1472 1470 1469 1468 1466 1465 1463